{"data":{"norad_id":66408,"intl_designator":"2025-257AE","name":"STARLINK-35679","alt_names":[],"object_type":"PAYLOAD","status":"ACTIVE","operator":null,"country":"US","launch_date":"2025-11-09","launch_site_code":"AFETR","launch_vehicle":null,"mission":null,"orbit_class":"UNKNOWN","rcs_meters":null,"size_class":null,"mass_kg":null,"dimensions":null,"purposes":["comms"],"wikipedia_slug":null,"has_3d_model":false,"image_url":null,"decayed_at":null,"tle_current":{"epoch":"2026-09-20T13:41:25.621152Z","epoch_age_seconds":87349,"freshness":"FRESH","line1":"1 66408U 25257AE  26263.57043543  .00026165  00000+0  78247-3 0  9995","line2":"2 66408  53.1593  27.3410 0000808  62.1615 297.9469 15.34413889 49630","mean_motion":15.34413889,"eccentricity":8.08e-5,"inclination_deg":53.1593,"raan_deg":27.341,"arg_perigee_deg":62.1615,"mean_anomaly_deg":297.9469,"bstar":0.00078247,"rev_number":4963,"period_min":93.846908602898,"perigee_km":462.10922292759,"apogee_km":463.21469603944,"semimajor_km":6840.7989594835,"source":"CELESTRAK","updated_at":"2026-09-21T09:00:35.905498Z"}}}